Location: Newark
(50.8964°N, 1.4048°W)
Time: 06:19:14
(UTC+00:00)

N. Korean satellite - Pass Details

Date: 29 January 2020
Orbit: 456 x 505 km, 97.2° (Epoch: 27 February)

Event Time Altitude Azimuth Distance (km) Brightness Sun altitude
Rises 07:06:30 0° 1° (N) 2,549 10.0 -6.7°
Reaches altitude 10° 07:08:55 10° 344° (NNW) 1,674 8.9 -6.3°
Maximum altitude 07:11:36 20° 296° (WNW) 1,172 7.9 -5.9°
Drops below altitude 10° 07:14:19 10° 247° (WSW) 1,685 8.9 -5.5°
Sets 07:16:46 0° 230° (SW) 2,571 10.0 -5.2°
